Pendleton, OR

12:07 PM PST on January 17, 2018 (GMT -0800)
Eastern Oreg Regional At Pendleton

Weather History for KPDT - March, 2013

Change the Weather History Date:

Sunday, March 10, 2013

  Actual Average Record
Temperature  
Mean Temperature 44 °F 44 °F  
Max Temperature 57 °F 54 °F 76 °F (2015)
Min Temperature 31 °F 34 °F 16 °F (1948)
Degree Days  
Heating Degree Days 21 21  
Month to date heating degree days 225 225  
Since 1 July heating degree days 3958 4124  
Cooling Degree Days 0 0  
Month to date cooling degree days 0 0  
Year to date cooling degree days 0 0  
Moisture  
Dew Point 30 °F    
Average Humidity 52    
Maximum Humidity 83    
Minimum Humidity 21    
Precipitation  
Precipitation 0.05 in 0.05 in 0.40 in (1922)
Month to date precipitation 0.25 0.45  
Year to date precipitation 1.62 2.99  
Snow  
Snow 0.00 in 0.00 in 2.00 in (1932)
Month to date snowfall T 0.4  
Year to date snowfall 0.1 7.4  
Since 1 July snowfall 1.9 14.9  
Snow Depth 0.00 in    
Sea Level Pressure  
Sea Level Pressure 30.35 in    
Wind  
Wind Speed 10 mph (SW)    
Max Wind Speed 24 mph    
Max Gust Speed 30 mph    
Visibility 10 miles    
Events Rain    
T = Trace of Precipitation, MM = Missing Value Source: NWS Daily Summary

Daily Weather History Graph

Daily Weather History Graph

Search for Another Location

Airport or City:

Trip Planner

Search our weather history database for the weather conditions in past years. The results will help you decide how hot, cold, wet, or windy it might be!

Date:

Astronomy

Mar. 10, 2013 Rise Set
Actual Time 7:16 AM PDT 6:55 PM PDT
Civil Twilight 6:47 AM PDT 7:24 PM PDT
Nautical Twilight 6:12 AM PDT 7:59 PM PDT
Astronomical Twilight 5:37 AM PDT 8:34 PM PDT
Moon 6:21 AM PDT (3/10) 6:07 PM PDT (3/10)
Length of Visible Light 12h 37m
Length of Day
11h 38m
Waning Crescent, 1% of the Moon is Illuminated
Mar 10
Waning Crescent
Mar 11
New
Mar 19
First Quarter
Mar 27
Full
Apr 2
Last Quarter

Hourly Weather History & Observations

Time (PDT) Temp. Windchill Dew Point Humidity Pressure Visibility Wind Dir Wind Speed Gust Speed Precip Events Conditions
12:53 AM 35.1 °F 29.3 °F 24.1 °F 64% 30.42 in 10.0 mi SE 6.9 mph - N/A   Clear
1:53 AM 32.0 °F 27.5 °F 23.0 °F 69% 30.42 in 10.0 mi SE 4.6 mph - N/A   Clear
3:53 AM 35.1 °F 27.9 °F 24.1 °F 64% 30.40 in 10.0 mi SSE 9.2 mph - N/A   Clear
5:53 AM 30.9 °F 22.8 °F 21.9 °F 69% 30.41 in 10.0 mi SSE 9.2 mph - N/A   Clear
6:53 AM 30.9 °F 22.8 °F 21.9 °F 69% 30.42 in 10.0 mi SSE 9.2 mph - N/A   Clear
7:53 AM 33.1 °F 25.5 °F 21.9 °F 64% 30.43 in 10.0 mi SSE 9.2 mph - N/A   Clear
8:53 AM 37.9 °F 32.7 °F 23.0 °F 55% 30.40 in 10.0 mi South 6.9 mph - N/A   Partly Cloudy
9:53 AM 44.1 °F 40.8 °F 23.0 °F 43% 30.39 in 10.0 mi South 5.8 mph - N/A   Clear
10:53 AM 52.0 °F - 24.1 °F 34% 30.37 in 10.0 mi West 15.0 mph - N/A   Scattered Clouds
11:53 AM 52.0 °F - 26.1 °F 37% 30.36 in 10.0 mi West 9.2 mph - N/A   Clear
12:53 PM 55.0 °F - 24.1 °F 30% 30.34 in 10.0 mi West 12.7 mph - N/A   Mostly Cloudy
1:53 PM 57.0 °F - 17.1 °F 21% 30.30 in 10.0 mi West 12.7 mph - N/A   Overcast
2:53 PM 55.0 °F - 25.0 °F 31% 30.29 in 10.0 mi West 10.4 mph - 0.00 in Rain Light Rain
3:53 PM 48.9 °F - 39.0 °F 69% 30.31 in 10.0 mi NW 9.2 mph - 0.00 in Rain Light Rain
4:53 PM 46.9 °F - 37.0 °F 68% 30.32 in 9.0 mi Calm Calm - 0.03 in Rain Light Rain
5:53 PM 46.0 °F 42.5 °F 39.9 °F 79% 30.31 in 10.0 mi SSE 6.9 mph - 0.02 in Rain Light Rain
6:53 PM 45.0 °F 41.2 °F 39.0 °F 80% 30.30 in 10.0 mi SSE 6.9 mph - 0.00 in   Overcast
7:53 PM 45.0 °F 41.2 °F 39.0 °F 80% 30.30 in 10.0 mi South 6.9 mph - N/A   Mostly Cloudy
8:53 PM 46.9 °F - 41.0 °F 80% 30.30 in 10.0 mi WSW 15.0 mph - N/A   Overcast
9:53 PM 46.9 °F - 39.9 °F 77% 30.29 in 10.0 mi West 19.6 mph 27.6 mph N/A   Overcast
10:53 PM 46.9 °F - 39.9 °F 77% 30.29 in 10.0 mi West 19.6 mph 29.9 mph N/A   Overcast
11:53 PM 46.0 °F 39.9 °F 39.9 °F 79% 30.30 in 10.0 mi West 13.8 mph - N/A   Overcast
12:53 AM 46.0 °F 38.8 °F 39.9 °F 79% 30.29 in 10.0 mi West 18.4 mph - N/A   Overcast